カタログに戻る

STARLINK-31721

運用中通信VLEO
NORAD 59536·PAYLOAD·🇺🇸 United States

打ち上げ Apr 18, 2024 から Cape Canaveral Space Force Station

Loading…

次のパス (今後24時間)

TLE

最新Source: CelesTrak SupGP

元期: Sep 14, 2026, 14:00 UTC

1 59536C 24074C   26257.58381944 -.00068735  00000+0 -24906-2 0  2579
2 59536  43.0016 356.4954 0001415 273.9743 179.2596 15.27598681    18

AllMySatでSTARLINK-31721をリアルタイム追跡

Download on the App Store